Terminal Aerodrome Forecast
Issued by NWS

Home | Current Version | Previous Version | Graphics & Text | Print | Product List | Glossary On
Versions: 1 2 3 4 5 6 7 8 9 10 11 12 13 14 15 16 17 18 19
846
FTUS43 KOAX 221927 AAA
TAFCDR
TAF AMD
KCDR 221927Z 2219/2318 16018G25KT P6SM VCTS BKN080CB BKN120
     FM230400 20012KT P6SM BKN150
     FM230900 26007KT P6SM SCT150=

USA.gov is the U.S. government's official web portal to all federal, state and local government web resources and services.